OneWeb SL0181

operational
NORAD ID: 48230 Int'l Des: 2021-031 Owner: ONEWEBN Country: UK Constellation: oneweb
LEOCIRCULARPOLARONEWEB_TYPE

关于 OneWeb SL0181

正在加载描述...

实时位置

正在加载3D地球...

即将过境

高度历史

Altitude vs Time

uPlot chart will show altitude changes over time

两行轨道根数

1 48230U 21031W 26061.14944814 .00000260 00000-0 66756-3 0 9995
2 48230 87.8989 311.0902 0001840 82.7662 277.3677 13.14501459234177
Epoch: Mar 2, 2026 • Age: 37 hours

当前状态

高度 1208.6 km
速度 7.25 km/s
星下点 29.63°N, 38.59°W
发射日期 Apr 25, 2021
运行时间 4.8 years
类型 internet

技术详情

分类 Payload
质量 148.00 kg
干质量 140.00 kg
总质量 148.00 kg
长度 1.30 m
直径 1.00 m
跨度 5.00 m
形状 Trapezoid+2 pan
制造商 ONEWUS
平台类型 ARROW
阶段状态 In Orbit
所有者/国家 ONEWEBN/UK

大型星座

Loading constellations...